Weather reports worldwide

Advertisment
Tarbes/Ossun, France (7621): temperature & dewpoint: 05.12.2019 08:00:00 - 11.12.2019 08:00:00 (CET)Tarbes/Ossun, France (7621): temperature 5cm: 05.12.2019 08:00:00 - 11.12.2019 08:00:00 (CET)Tarbes/Ossun, France (7621): temperature -20cm & temperature -100cm: 05.12.2019 08:00:00 - 11.12.2019 08:00:00 (CET)Tarbes/Ossun, France (7621): wind speed & gusts: 05.12.2019 08:00:00 - 11.12.2019 08:00:00 (CET)Tarbes/Ossun, France (7621): wind direction: 05.12.2019 08:00:00 - 11.12.2019 08:00:00 (CET)Tarbes/Ossun, France (7621): reduced air pressure: 05.12.2019 08:00:00 - 11.12.2019 08:00:00 (CET)Tarbes/Ossun, France (7621): visibility: 05.12.2019 08:00:00 - 11.12.2019 08:00:00 (CET)Tarbes/Ossun, France (7621): sunshine duration: 05.12.2019 08:00:00 - 11.12.2019 08:00:00 (CET)Tarbes/Ossun, France (7621): precipitation: 05.12.2019 08:00:00 - 11.12.2019 08:00:00 (CET)
Date & Time tt [°C] td [°C] tt 5cm [°C] tt -20cm [°C] tt -100cm [°C] ff [km/h] ff [kn] fx [km/h] fx [kn] dd ppp [hPa] vv [km] sd [min] rr [mm]
11.12.2019 08:00:00 8,5 3,7 7,0 8,4 11,1 8 4 16 9 S 1017,2 47 0 0,0
11.12.2019 07:00:00 9,3 2,2 6,9 8,4 11,0 13 7 18 10 S 1016,7 60 0 0,0
11.12.2019 06:00:00 10,2 0,8 6,1 8,4 11,0 10 5 21 11 SSE 1017,1 60 0 0,0
11.12.2019 05:00:00 10,1 1,2 7,1 8,4 11,0 16 9 23 12 S 1017,7 60 0 0,0
11.12.2019 04:00:00 9,2 1,4 7,2 8,5 11,0 16 9 24 13 S 1019,0 60 0 0,0
11.12.2019 03:00:00 9,3 1,0 6,7 8,5 11,0 18 10 24 13 S 1019,9 60 0 0,0
11.12.2019 02:00:00 9,1 0,8 5,6 8,6 11,0 9 5 16 8 SSE 1020,9 60 0 0,0
11.12.2019 01:00:00 7,8 1,2 4,1 8,6 11,0 14 7 22 12 S 1021,4 60 0 0,0
11.12.2019 00:00:00 7,4 0,6 2,8 8,7 11,0 16 9 23 12 SSE 1022,0 60 0 0,0
10.12.2019 23:00:00 6,6 1,1 2,9 8,8 11,0 13 7 21 12 SSE 1022,5 54 0 0,0
10.12.2019 22:00:00 6,1 1,8 0,6 8,8 11,0 15 8 19 10 S 1023,0 54 0 0,0
10.12.2019 21:00:00 2,9 2,8 0,1 8,9 11,1 11 6 13 7 S 1024,1 31 0 0,0
10.12.2019 20:00:00 3,3 2,9 0,4 8,8 11,0 6 4 9 5 SSE 1024,3 19 0 0,0
10.12.2019 19:00:00 4,1 3,4 1,9 8,8 11,1 5 3 9 5 SSE 1024,6 29 0 0,0
10.12.2019 18:00:00 6,8 3,2 2,0 8,7 11,0 3 1 11 6 ENE 1024,7 30 0 0,0
10.12.2019 17:00:00 9,2 4,2 5,8 8,7 11,1 5 3 16 9 NNE 1024,7 40 41 0,0
10.12.2019 16:00:00 10,3 4,4 10,9 8,6 11,0 6 3 18 10 NE 1025,5 56 44 0,0
10.12.2019 15:00:00 11,0 4,7 15,4 8,5 11,0 9 5 18 10 NNE 1025,8 27 60 0,0
10.12.2019 14:00:00 11,1 3,1 14,6 8,5 11,0 9 5 18 10 NNE 1026,7 20 60 0,0
10.12.2019 13:00:00 11,0 3,5 11,6 8,5 11,0 8 4 19 10 N 1027,7 27 60 0,0
10.12.2019 12:00:00 10,4 4,3 7,8 8,6 11,1 5 3 13 7 NE 1028,5 48 60 0,0
10.12.2019 11:00:00 7,9 4,5 4,7 8,6 11,0 5 3 9 5 SE 1029,9 37 42 0,0
10.12.2019 10:00:00 5,1 3,8 0,2 8,7 11,1 7 4 11 6 SSE 1030,7 34 60 0,0
10.12.2019 09:00:00 2,0 1,7 -0,1 8,8 11,1 4 2 12 7 SE 1031,8 27 15 0,0
10.12.2019 08:00:00 3,6 2,4 0,0 8,8 11,1 6 3 10 6 S 1031,6 46 0 0,0
10.12.2019 07:00:00 4,2 2,7 1,1 8,9 11,1 8 4 18 10 SSE 1031,4 48 0 0,0
10.12.2019 06:00:00 5,0 3,8 3,4 8,9 11,1 13 7 19 10 S 1031,7 37 0 0,0
10.12.2019 05:00:00 5,8 4,9 4,0 8,9 11,1 7 4 12 7 SSE 1032,5 19 0 0,0
10.12.2019 04:00:00 6,6 4,6 4,0 8,9 11,0 6 4 20 11 WSW 1032,2 20 0 0,0
10.12.2019 03:00:00 7,4 5,4 5,1 9,0 11,1 12 6 23 13 WSW 1032,4 20 0 0,0
10.12.2019 02:00:00 6,6 5,4 5,1 9,0 11,1 16 9 27 14 SW 1032,3 29 0 0,0
10.12.2019 01:00:00 7,2 6,3 6,5 9,0 11,0 16 9 28 15 SW 1032,4 7 0 0,4
10.12.2019 00:00:00 7,9 5,9 6,3 9,0 11,0 18 10 35 19 WSW 1032,3 6 0 0,0
09.12.2019 23:00:00 8,2 6,3 6,3 9,0 11,1 19 11 47 26 WSW 1031,7 16 0 0,0
09.12.2019 22:00:00 7,9 6,5 6,4 9,1 11,1 13 7 28 15 W 1031,7 8 0 0,2
09.12.2019 21:00:00 7,9 6,8 - - - 16 9 37 20 WSW 1031,5 16 - 0,2
09.12.2019 20:00:00 8,0 6,5 5,8 9,1 11,1 20 11 51 28 WSW 1030,6 17 0 0,0
09.12.2019 19:00:00 8,0 6,5 7,0 9,1 11,1 23 12 48 26 W 1030,3 4,0 0 1,0
09.12.2019 18:00:00 8,1 6,7 6,7 9,1 11,1 26 14 49 26 WSW 1029,3 16 0 2,8
09.12.2019 17:00:00 7,8 6,9 7,1 9,1 11,1 14 8 58 31 W 1028,1 5 0 3,4
09.12.2019 16:00:00 8,0 6,5 7,3 9,1 11,1 26 14 56 31 WSW 1027,4 4,0 0 1,3
09.12.2019 15:00:00 8,6 6,7 7,8 9,0 11,1 33 18 59 32 W 1027,2 16 11 0,4
09.12.2019 14:00:00 9,1 7,2 7,9 9,0 11,1 30 16 66 36 W 1026,0 18 10 3,8
09.12.2019 13:00:00 10,4 7,3 9,7 9,0 11,1 33 18 58 31 WSW 1025,6 12 13 0,0
09.12.2019 12:00:00 9,5 7,3 8,3 9,0 11,1 29 16 55 30 W 1026,5 13 0 0,0
09.12.2019 11:00:00 9,0 6,4 8,0 9,0 11,1 33 18 64 34 W 1026,2 18 0 0,4
09.12.2019 10:00:00 8,8 7,2 7,6 9,1 11,1 32 18 57 31 W 1025,7 20 3 2,8
09.12.2019 09:00:00 8,3 7,4 6,5 9,1 11,1 32 18 66 35 W 1025,0 14 0 5,9
09.12.2019 08:00:00 8,8 6,8 7,1 9,2 11,1 29 16 62 33 WSW 1024,1 24 0 1,4
09.12.2019 07:00:00 9,4 5,4 6,6 9,2 11,1 32 17 54 29 WSW 1023,5 38 0 0,0
09.12.2019 06:00:00 9,0 6,3 6,8 9,3 11,1 31 17 53 29 WSW 1023,9 32 0 0,6
09.12.2019 05:00:00 9,0 5,9 6,3 9,3 11,1 28 15 54 29 W 1024,1 7 0 0,4
09.12.2019 04:00:00 9,2 4,4 6,7 9,4 11,2 19 11 41 22 WSW 1023,3 36 0 0,0
09.12.2019 03:00:00 9,4 4,0 5,7 9,4 11,1 25 14 42 23 WSW 1023,3 41 0 0,0
09.12.2019 02:00:00 8,8 4,2 4,1 9,4 11,1 21 11 34 19 W 1023,8 33 0 0,0
09.12.2019 01:00:00 8,4 5,3 5,4 9,5 11,1 21 11 40 21 WSW 1024,2 20 0 0,0
09.12.2019 00:00:00 8,7 5,6 4,7 9,4 11,1 19 10 34 18 WSW 1024,9 19 0 0,0
08.12.2019 23:00:00 9,0 6,1 5,5 9,4 11,1 13 7 31 17 WSW 1025,0 19 0 0,0
08.12.2019 22:00:00 9,9 7,3 7,7 9,4 11,1 17 9 50 27 WSW 1024,2 18 0 0,0
08.12.2019 21:00:00 10,4 8,2 8,7 9,3 11,1 25 14 56 30 W 1024,4 20 0 0,0
08.12.2019 20:00:00 11,9 10,1 10,6 9,2 11,1 33 18 61 33 W 1023,4 60 0 0,2
08.12.2019 19:00:00 12,4 11,6 11,7 9,1 11,1 27 14 47 25 W 1022,1 7 0 0,4
08.12.2019 18:00:00 12,3 11,8 11,5 9,0 11,2 19 11 32 17 WSW 1021,1 1,9 0 3,0
08.12.2019 17:00:00 12,3 11,5 11,5 8,9 11,1 13 7 26 14 WSW 1020,4 8 0 1,6
08.12.2019 16:00:00 12,3 10,9 11,7 8,8 11,1 10 5 20 11 SW 1020,2 10 0 0,6
08.12.2019 15:00:00 13,3 10,1 12,9 8,7 11,2 11 6 33 18 W 1019,9 15 0 0,0
08.12.2019 14:00:00 15,5 8,5 15,8 8,6 11,1 25 14 36 20 WNW 1019,6 57 16 0,0
08.12.2019 13:00:00 16,6 7,0 16,8 8,6 11,1 14 8 23 12 W 1019,9 60 44 0,0
08.12.2019 12:00:00 16,6 6,4 12,2 8,6 11,1 10 5 21 12 W 1020,5 19 57 0,0
08.12.2019 11:00:00 13,9 4,7 8,3 8,6 11,2 11 6 16 9 S 1021,5 58 60 0,0
08.12.2019 10:00:00 10,4 4,1 3,9 8,7 11,1 9 5 18 10 SSE 1021,7 45 60 0,0
08.12.2019 09:00:00 6,5 2,2 2,1 8,7 11,1 13 7 23 12 S 1022,5 42 17 0,0
08.12.2019 08:00:00 5,6 2,4 2,4 8,8 11,2 11 6 23 12 S 1022,8 60 0 0,0
08.12.2019 07:00:00 7,0 2,9 4,6 8,8 11,1 14 8 20 11 S 1022,7 60 0 0,0
08.12.2019 06:00:00 6,4 3,9 3,3 8,9 11,2 11 6 22 12 SSE 1023,1 60 0 0,0
08.12.2019 05:00:00 5,9 3,4 2,9 8,9 11,1 13 7 21 11 S 1022,9 60 0 0,0
08.12.2019 04:00:00 6,1 4,4 2,5 9,0 11,2 12 6 16 9 S 1023,3 60 0 0,0
08.12.2019 03:00:00 5,0 3,3 2,4 9,1 11,2 11 6 18 10 S 1024,2 57 0 0,0
08.12.2019 02:00:00 5,8 3,6 1,9 9,1 11,2 14 8 19 11 SSE 1024,4 44 0 0,0
08.12.2019 01:00:00 5,2 4,0 1,8 9,1 11,2 11 6 16 9 S 1024,7 43 0 0,0
08.12.2019 00:00:00 5,4 3,4 2,3 9,1 11,2 11 6 16 9 S 1025,0 30 0 0,0
07.12.2019 23:00:00 6,1 4,6 2,9 9,1 11,2 10 6 17 9 S 1024,9 27 0 0,0
07.12.2019 22:00:00 8,8 6,4 6,7 9,1 11,1 11 6 15 8 S 1024,7 26 0 0,0
07.12.2019 21:00:00 9,2 7,3 8,2 9,1 11,2 8 4 13 7 S 1024,9 21 0 0,0
07.12.2019 20:00:00 9,5 7,3 8,2 9,1 11,2 10 6 16 9 S 1024,8 18 0 0,0
07.12.2019 19:00:00 8,8 7,2 6,0 9,0 11,2 10 5 13 7 SSE 1024,8 20 0 0,0
07.12.2019 18:00:00 8,2 6,3 4,5 8,9 11,2 6 4 10 5 SW 1024,4 24 0 0,0
07.12.2019 17:00:00 11,8 7,3 8,5 8,8 11,2 8 4 15 8 NNW 1023,2 32 38 0,0
07.12.2019 16:00:00 13,3 7,5 15,1 8,7 11,2 9 5 19 10 NW 1022,6 43 57 0,0
07.12.2019 15:00:00 13,5 7,5 15,3 8,6 11,2 13 7 22 12 NW 1022,4 52 53 0,0
07.12.2019 14:00:00 13,4 8,0 16,8 8,5 11,2 9 5 19 11 WNW 1023,0 43 58 0,0
07.12.2019 13:00:00 12,6 7,5 14,4 8,5 11,2 2 1 10 6 N 1023,6 32 10 0,0
07.12.2019 12:00:00 11,7 7,0 12,6 8,4 11,2 4 2 10 5 S 1024,4 43 16 0,0
07.12.2019 11:00:00 10,4 6,3 8,9 8,5 11,2 5 3 11 6 S 1025,1 46 26 0,0
07.12.2019 10:00:00 8,5 5,8 3,8 8,5 11,2 8 4 14 8 S 1025,0 33 57 0,0
07.12.2019 09:00:00 5,1 3,8 3,6 8,5 11,2 12 6 21 11 S 1025,3 29 16 0,0
07.12.2019 08:00:00 7,3 5,6 6,3 8,5 11,2 9 5 15 8 S 1024,8 34 0 0,0
07.12.2019 07:00:00 7,4 6,0 6,7 8,5 11,2 6 3 9 5 S 1024,3 26 0 0,0
07.12.2019 06:00:00 7,1 6,0 6,5 8,6 11,2 8 5 12 7 SE 1024,1 25 0 0,0
07.12.2019 05:00:00 6,9 5,8 4,8 8,6 11,2 4 2 14 7 SE 1024,1 20 0 0,0
07.12.2019 04:00:00 5,4 4,0 2,0 8,7 11,2 6 3 18 10 S 1024,2 35 0 0,0
07.12.2019 03:00:00 4,4 3,1 1,9 8,7 11,2 11 6 15 8 S 1024,0 37 0 0,0
07.12.2019 02:00:00 4,3 2,2 1,7 8,8 11,2 9 5 18 10 S 1024,2 16 0 0,0
07.12.2019 01:00:00 4,6 2,6 1,8 8,8 11,2 10 5 18 10 SSE 1025,1 32 0 0,0
07.12.2019 00:00:00 5,2 2,9 1,4 8,9 11,2 12 6 18 10 SSE 1025,0 36 0 0,0
06.12.2019 23:00:00 5,5 3,0 2,5 8,9 11,2 10 6 18 10 S 1024,2 35 0 0,0
06.12.2019 22:00:00 6,4 3,5 2,8 9,0 11,3 14 7 19 10 SSE 1023,2 35 0 0,0
06.12.2019 21:00:00 6,5 4,0 1,6 9,0 11,3 13 7 18 10 SSE 1022,9 28 0 0,0
06.12.2019 20:00:00 5,1 3,1 2,5 9,0 11,3 7 4 12 6 SSE 1023,1 3,1 0 0,0
06.12.2019 19:00:00 6,6 4,4 2,8 8,9 11,2 7 4 11 6 S 1022,4 30 0 0,0
06.12.2019 18:00:00 6,9 4,0 3,4 8,8 11,2 3 2 9 5 S 1022,0 38 0 0,0
06.12.2019 17:00:00 13,7 3,7 8,2 8,7 11,2 4 2 12 6 ENE 1020,6 25 60 0,0
06.12.2019 16:00:00 15,3 4,3 17,9 8,6 11,2 6 3 14 7 ENE 1020,5 49 60 0,0
06.12.2019 15:00:00 15,2 5,7 20,8 8,5 11,3 6 4 12 6 NNE 1020,9 51 60 0,0
06.12.2019 14:00:00 16,0 6,1 17,7 8,4 11,2 3 2 12 6 SE 1021,4 22 60 0,0
06.12.2019 13:00:00 13,3 6,4 13,4 8,4 11,2 5 3 10 5 N 1022,6 17 60 0,0
06.12.2019 12:00:00 12,0 5,4 9,0 8,4 11,3 4 2 10 5 ESE 1023,6 19 60 0,0
06.12.2019 11:00:00 8,1 6,4 5,1 8,4 11,3 6 3 9 5 SE 1025,0 14 60 0,0
06.12.2019 10:00:00 4,6 4,6 3,5 8,4 11,3 2 1 9 5 WSW 1025,5 6 60 0,0
06.12.2019 09:00:00 3,3 3,3 2,6 8,5 11,3 4 2 11 6 SE 1025,5 0,2 9 0,0
06.12.2019 08:00:00 4,3 4,2 4,6 8,5 11,3 7 4 10 5 S 1025,2 0,1 0 0,0
06.12.2019 07:00:00 4,9 4,6 4,7 8,6 11,3 4 2 14 7 SW 1025,2 0,7 0 0,0
06.12.2019 06:00:00 4,3 3,9 3,0 8,7 11,3 10 5 15 8 SE 1025,1 5 0 0,0
06.12.2019 05:00:00 3,5 3,1 0,2 8,7 11,3 9 5 14 8 SSE 1025,4 12 0 0,0
06.12.2019 04:00:00 2,5 2,4 0,0 8,8 11,3 8 5 11 6 S 1025,4 14 0 0,0
06.12.2019 03:00:00 2,3 2,0 - - - 5 3 13 7 SSW 1025,0 8 - 0,0
06.12.2019 02:00:00 3,2 2,8 0,4 8,9 11,3 8 5 13 7 S 1024,7 13 0 0,0
06.12.2019 01:00:00 4,2 3,3 1,3 9,0 11,3 7 4 13 7 SSE 1024,9 8 0 0,0
06.12.2019 00:00:00 4,6 3,7 1,3 9,0 11,3 11 6 14 8 S 1025,6 11 0 0,0
05.12.2019 23:00:00 4,8 3,6 1,9 9,0 11,3 8 4 11 6 SSW 1025,5 10 0 0,0
05.12.2019 22:00:00 7,9 6,4 6,4 9,0 11,3 7 4 13 7 S 1024,9 3,9 0 0,0
05.12.2019 21:00:00 7,9 6,7 6,3 8,9 11,3 7 4 11 6 S 1025,0 12 0 0,0
05.12.2019 20:00:00 6,8 6,1 5,6 9,0 11,4 4 2 9 5 SW 1024,9 15 0 0,0
05.12.2019 19:00:00 6,5 5,6 3,0 8,9 11,3 3 2 9 5 SSW 1024,4 11 0 0,0
05.12.2019 18:00:00 7,7 6,0 3,2 8,8 11,3 3 2 7 4 SSW 1023,6 17 0 0,0
05.12.2019 17:00:00 10,8 6,3 9,0 8,7 11,3 3 2 10 5 ENE 1022,9 28 11 0,0
05.12.2019 16:00:00 11,7 6,4 12,5 8,6 11,3 4 2 13 7 NE 1022,4 23 32 0,0
05.12.2019 15:00:00 12,2 6,7 17,1 8,5 11,3 5 3 12 7 NE 1022,1 20 55 0,0
05.12.2019 14:00:00 11,9 6,6 16,8 8,5 11,3 4 2 13 7 N 1022,3 20 60 0,0
05.12.2019 13:00:00 11,0 5,9 11,2 8,4 11,3 3 2 13 7 SSW 1022,7 16 58 0,0
05.12.2019 12:00:00 9,3 6,0 9,3 8,4 11,3 6 4 12 6 N 1023,5 13 29 0,0
05.12.2019 11:00:00 8,0 5,5 7,3 8,4 11,3 2 1 12 7 NW 1023,7 14 10 0,0
05.12.2019 10:00:00 6,6 5,2 6,3 8,4 11,4 6 3 9 5 SSW 1023,4 12 0 0,0
05.12.2019 09:00:00 6,1 5,4 5,5 8,4 11,4 3 2 13 7 SW 1022,7 9 1 0,0
05.12.2019 08:00:00 5,7 5,1 5,1 8,5 11,4 9 5 11 6 S 1022,0 7 0 0,0

tt = temperature
td = dewpoint
tt 5cm = temperature 5cm
tt -20cm = temperature -20cm
tt -100cm = temperature -100cm
ff = wind speed
fx = gusts
dd = wind direction
ppp = reduced air pressure
vv = visibility
sd = sunshine duration
rr = precipitation

Next stations